Location: ??????
(38.0677°N, 22.9870°E)
Time: 11:38:06
(UTC+00:00)

Meteor 2-5 Rocket - Pass Details

Date: 23 May 2024
Orbit: 832 x 911 km, 81.2° (Epoch: 18 June)

Event Time Altitude Azimuth Distance (km) Brightness Sun altitude
Exits shadow 01:00:33 33° 184° (S) 1,467 4.5 -20.8°
Maximum altitude 01:03:22 86° 99° (E) 914 3.8 -20.5°
Drops below altitude 10° 01:09:20 10° 10° (N) 2,605 7.1 -19.7°
Sets 01:11:49 0° 10° (N) 3,551 7.9 -19.4°
